Temp
19 19 19 19 19 19 20 19 19 19 19 20 20 20 19 19 19 19 19 19 19 19 19 19 19 19 19 19 19 19 19 18 18 18 18 18 18 17 17 17 17 17 16 16 17 17 16 17 17 17 17 17 18 18 18 19 19 19 20 20 21 21 21 21 19 19 20 20 20 19 18 17 17 17 16 16 16 15 15 15 15 15 15 15 15
19 19 19 19 19 19 20 20 20 20 20 20 20 19 19 19 19 19 19 19 19 19 19 19 19 19 19 19 19 19 19 18 18 18 18 18 18 18 18 18 18 18 17 17 17 17 17 17 17 17 17 18 18 18 18 19 19 19 20 21 21 21 21 21 20 20 20 20 20 19 18 18 18 17 17 17 16 16 16 15 15 15 15 15 15
19 19 19 19 19 19 19 20 20 20 20 20 20 19 19 19 19 19 19 19 19 19 19 19 19 19 19 19 19 19 19 18 18 18 18 18 18 18 18 18 18 18 18 18 18 18 18 17 17 17 17 18 18 18 19 19 19 20 20 21 21 21 21 21 20 20 20 20 20 19 19 18 18 18 18 17 17 17 16 16 16 16 16 15 15
19 19 19 19 20 20 20 20 19 19 20 20 19 19 19 19 19 19 19 19 19 19 19 19 19 19 19 19 19 18 19 18 18 19 19 19 19 19 19 19 19 19 19 19 18 18 18 18 17 17 18 18 18 19 19 19 20 20 21 21 21 21 21 21 20 20 20 20 20 20 19 19 19 19 18 18 17 17 17 16 16 16 16 16 16
17 18 19 19 19 19 20 20 19 19 19 19 19 19 19 19 19 19 19 19 19 19 19 19 19 19 19 19 19 19 19 19 19 19 19 19 19 19 19 19 19 19 19 19 19 18 18 17 17 17 17 18 18 19 19 20 20 20 21 21 21 21 21 21 20 20 20 20 20 20 19 19 19 19 19 18 17 17 17 17 17 17 17 17 16
15 17 18 19 19 19 19 19 19 19 19 19 19 19 19 19 19 19 19 19 19 19 19 20 19 19 19 19 19 19 19 19 19 19 19 19 20 20 19 19 19 19 20 20 19 19 19 18 17 17 17 17 18 19 19 20 20 20 21 21 21 21 21 21 20 20 20 20 20 20 20 19 19 20 20 19 18 17 17 17 18 18 18 18 17
15 16 18 18 18 19 19 19 19 19 19 19 19 19 19 19 19 19 19 19 19 19 19 20 20 20 20 20 19 19 19 19 19 19 19 19 19 19 19 19 20 20 20 20 20 19 19 19 18 18 17 18 18 19 19 19 20 20 21 21 21 21 21 21 20 20 20 20 20 20 20 20 20 20 20 20 19 19 18 18 18 18 18 18 18
15 16 16 17 17 18 19 19 19 19 19 19 19 19 19 19 19 19 19 19 19 19 19 19 20 20 19 19 18 18 18 18 18 18 18 18 19 19 19 19 19 20 20 20 20 19 19 19 19 18 18 18 19 19 19 19 19 20 20 20 20 21 21 20 20 20 20 20 20 20 20 20 20 20 20 20 20 20 19 19 19 19 19 19 19
15 15 16 17 17 18 18 18 19 19 19 18 19 19 19 19 19 19 19 19 19 19 19 19 19 19 18 18 18 18 18 18 18 18 18 18 18 18 18 19 19 19 19 19 19 19 19 19 18 18 18 18 18 19 19 18 19 19 19 19 20 20 20 20 20 20 20 20 20 20 20 20 20 20 20 20 20 20 20 20 20 19 19 19 19
14 15 16 16 16 17 18 17 17 18 19 18 19 18 18 19 19 19 19 19 19 19 19 19 19 18 18 17 18 18 17 17 17 18 18 18 18 18 18 18 19 19 19 19 19 19 19 19 19 18 18 18 18 18 18 18 18 19 19 19 19 19 19 19 19 19 19 20 20 20 20 20 20 20 20 20 20 20 20 20 19 19 19 19 19
14 15 15 15 14 16 17 16 16 17 18 18 18 18 18 19 19 19 19 19 19 19 19 19 18 17 17 17 17 17 17 17 17 17 17 18 18 18 18 18 18 19 19 19 19 19 19 18 19 18 18 18 18 18 18 18 18 18 18 18 18 18 19 19 18 18 18 18 19 19 19 20 20 20 20 20 20 20 20 19 19 19 19 18 18
14 14 15 14 14 15 16 16 15 16 17 18 18 17 18 18 18 18 18 18 19 18 18 17 17 16 17 17 17 16 16 17 17 17 17 17 18 18 18 18 18 19 19 19 19 19 19 18 18 18 18 18 18 18 18 18 18 18 18 18 18 18 18 18 18 18 18 18 18 18 18 18 19 19 19 19 19 19 19 19 19 19 19 18 18
12 13 14 14 14 15 16 16 16 16 17 17 17 16 17 17 17 17 17 18 18 17 16 16 15 16 16 16 16 16 16 16 16 17 17 17 17 18 18 18 18 19 19 19 18 18 18 18 18 18 17 17 18 18 18 18 18 18 18 18 18 18 18 18 18 18 18 18 18 18 18 18 18 18 18 18 18 18 19 19 19 18 18 18 18
10 11 13 13 14 14 15 15 15 16 16 16 16 16 15 15 15 16 16 16 16 15 15 15 15 15 16 16 15 15 15 16 16 16 17 17 17 17 17 17 18 18 18 18 18 17 18 17 17 17 17 17 17 17 17 17 17 17 17 17 17 18 18 18 18 18 18 18 18 18 18 18 18 18 17 17 17 18 18 18 18 18 18 18 17
8 9 10 12 12 13 13 13 14 14 14 15 15 15 15 14 14 15 15 15 14 14 14 14 14 14 14 14 14 14 14 14 15 16 16 16 17 17 17 17 17 17 17 17 17 17 17 16 16 16 16 16 16 17 17 16 16 16 17 17 17 17 17 17 17 17 17 17 17 17 18 18 17 17 17 17 17 17 17 17 17 17 17 17 17
6 7 8 9 10 11 12 12 12 12 13 13 14 14 14 14 14 14 14 14 13 13 13 13 13 12 13 13 13 13 13 13 14 15 15 16 16 16 16 17 17 16 16 17 17 16 16 15 15 15 15 15 16 16 16 16 16 15 15 15 16 16 16 16 16 16 16 16 16 16 17 17 17 17 17 17 17 17 16 16 16 16 16 16 16
5 6 6 7 8 9 10 10 10 10 11 12 12 12 12 13 13 13 13 13 12 12 12 12 12 11 12 12 12 12 12 12 13 14 14 15 16 16 17 17 16 16 16 16 16 16 15 15 15 15 15 15 15 15 15 15 15 15 14 14 15 15 15 15 15 15 15 15 16 16 16 16 16 16 16 16 16 16 16 15 15 16 16 15 15
5 5 6 6 6 7 8 8 9 9 9 9 9 10 11 11 11 12 12 12 12 12 11 11 11 11 11 11 11 12 12 12 13 13 14 14 15 15 16 16 16 16 16 16 15 15 15 15 15 15 14 14 14 14 14 14 14 14 13 14 14 14 14 14 14 15 15 15 15 15 15 15 15 15 15 15 15 15 15 15 15 15 15 15 15
5 5 6 6 6 7 7 7 8 8 8 8 8 9 9 10 10 10 10 11 11 11 11 11 10 10 10 10 11 11 12 12 13 13 13 14 14 14 14 15 15 15 15 15 14 14 14 14 14 14 13 12 12 13 13 13 13 13 12 12 12 12 13 13 13 13 14 14 14 14 14 14 14 14 15 15 15 15 15 15 15 14 14 14 15
5 5 6 6 6 7 7 7 7 7 8 8 8 8 9 9 9 9 9 10 10 10 10 10 10 10 10 10 10 11 11 11 11 12 13 13 13 13 14 14 13 13 13 13 13 13 12 12 12 12 11 11 11 11 11 11 12 12 12 12 11 11 12 12 12 12 12 13 13 13 13 14 14 14 14 14 14 15 15 15 15 14 14 14 14
6 6 6 6 6 7 7 7 7 7 7 8 8 8 8 9 9 9 9 10 10 9 9 10 10 10 10 10 10 10 10 10 10 11 11 12 12 12 12 13 12 12 12 12 12 11 10 11 11 11 10 11 11 11 11 11 11 11 11 11 11 11 11 11 11 11 12 12 12 12 12 13 13 13 14 14 14 14 14 14 15 14 14 14 14
7 7 7 6 6 7 7 7 7 7 7 8 8 8 8 8 9 9 9 10 10 10 10 10 10 10 10 10 10 9 9 9 9 9 10 10 10 11 11 11 11 11 11 11 12 11 10 9 10 10 10 9 10 10 10 11 11 11 11 11 11 10 10 10 10 11 11 11 11 10 11 11 12 12 13 13 14 14 14 14 14 14 14 14 14
8 7 7 7 7 7 7 7 7 7 7 8 8 8 8 9 9 9 9 10 10 10 10 10 10 10 9 9 8 8 8 8 8 8 8 9 9 9 9 9 9 9 9 9 9 9 9 8 9 10 10 10 10 10 10 10 10 10 10 10 10 10 10 10 10 10 10 10 9 9 10 10 11 11 12 12 13 13 13 13 13 14 14 14 14
8 8 8 8 8 7 7 7 8 8 8 8 8 8 9 9 9 9 10 10 10 10 11 11 11 10 9 9 8 8 8 8 7 7 7 7 7 7 8 8 8 8 8 8 7 7 8 8 8 9 9 10 10 10 10 10 9 10 10 10 10 9 9 10 10 9 9 9 9 9 10 10 11 11 11 12 12 12 13 13 13 13 14 13 14
9 9 9 9 8 8 8 8 8 8 8 8 8 9 9 9 9 9 10 10 10 10 11 11 11 11 10 10 9 9 8 7 7 7 7 7 7 7 7 7 7 7 7 7 7 7 7 8 8 8 9 9 9 9 10 10 9 9 10 9 9 10 10 10 10 9 9 9 9 10 10 11 11 11 11 11 11 11 12 13 13 13 13 13 12
9 9 9 9 9 9 8 8 8 8 8 8 8 9 8 8 8 8 9 9 10 10 11 11 11 11 11 10 10 9 8 7 6 6 6 7 7 7 6 6 7 7 7 7 7 7 7 8 8 8 9 9 9 9 10 10 10 10 10 10 10 10 10 9 9 9 9 9 10 10 11 11 11 11 11 11 10 10 11 11 11 12 13 12 11
9 9 9 9 9 9 9 9 8 9 8 8 8 8 8 8 8 8 8 8 8 9 9 10 10 10 10 10 10 9 7 6 6 6 7 7 7 7 6 6 6 6 6 6 7 7 8 8 8 8 9 9 9 10 10 10 10 10 10 10 10 9 9 9 9 9 9 9 10 10 10 10 10 10 10 9 9 9 9 9 9 10 11 11 10
9 9 9 9 9 9 9 9 8 8 8 8 8 8 7 7 7 7 7 7 7 7 7 8 8 8 8 9 8 7 6 6 6 6 6 6 6 6 6 6 6 6 6 7 7 7 8 8 8 8 9 10 10 10 9 9 9 9 9 9 9 9 9 9 9 9 9 9 9 9 9 9 9 9 8 8 8 8 8 8 8 8 9 10 9
9 9 9 9 9 9 9 9 9 8 8 8 8 8 7 7 7 7 7 7 7 7 7 7 7 6 6 6 6 5 5 5 5 5 5 5 5 6 6 6 6 6 7 7 7 8 8 8 8 9 9 9 9 9 9 8 8 8 8 8 8 8 8 8 8 8 8 8 8 8 8 8 8 7 7 7 7 7 7 7 7 7 8 9 9
9 9 9 9 9 9 9 9 9 9 8 8 7 7 7 7 7 7 7 7 7 7 7 7 6 6 6 5 5 5 5 5 5 5 5 5 5 6 6 6 6 6 7 7 7 8 8 8 8 8 8 8 8 8 8 7 7 7 7 7 7 7 7 7 7 7 7 7 7 7 7 6 6 7 7 6 6 6 7 6 6 6 6 7 8
9 9 9 9 9 9 9 9 9 10 9 9 8 7 7 7 7 7 7 7 7 7 7 6 6 6 6 5 5 5 5 5 5 5 5 5 6 6 6 6 6 6 7 7 7 8 8 8 8 8 8 8 7 7 7 6 6 6 6 6 6 6 6 6 6 6 6 6 6 5 5 5 5 5 5 5 5 6 6 6 6 6 6 6 7
9 8 8 9 9 10 10 9 9 10 10 10 9 8 7 7 7 7 7 6 6 6 6 6 6 6 6 6 5 5 5 5 5 5 5 6 6 6 6 6 6 7 7 7 8 8 8 8 8 8 8 7 7 6 6 6 6 6 6 6 6 5 5 5 5 5 5 5 5 4 4 4 4 4 4 4 4 4 5 5 5 5 5 5 5
8 8 8 8 9 9 10 10 10 10 10 10 10 9 8 8 7 7 6 6 6 6 6 6 6 6 6 5 5 5 5 5 5 5 6 6 6 6 6 7 7 7 7 7 7 7 8 8 7 7 7 6 6 5 5 5 5 5 5 5 5 5 5 5 5 4 4 4 4 3 3 3 3 3 2 2 3 3 4 4 5 5 5 5 5
8 8 8 8 8 9 10 9 9 9 9 9 9 9 9 9 9 8 7 6 5 6 5 5 5 5 5 5 5 5 5 5 5 5 6 6 6 6 7 7 7 7 7 7 7 7 7 7 6 6 5 5 5 5 5 5 4 4 4 4 4 4 4 4 4 3 3 2 2 2 2 2 2 2 1 2 2 2 3 3 4 4 4 4 4
8 8 8 8 9 9 9 9 8 8 8 8 9 9 9 9 9 9 8 7 6 6 6 5 5 5 5 5 5 5 5 4 4 5 5 6 6 7 7 7 7 7 7 7 6 6 6 6 5 5 5 4 4 4 4 4 4 4 4 4 3 3 3 3 2 2 2 1 1 1 1 1 1 1 1 1 1 2 2 3 3 3 4 4 4
8 8 8 8 8 9 9 8 8 8 7 8 8 9 9 9 9 9 9 9 8 7 6 5 5 5 5 5 5 5 5 5 5 5 5 5 6 6 6 6 6 6 6 6 5 5 5 5 4 4 4 4 4 4 4 3 3 3 3 3 2 2 2 2 1 1 1 0 0 0 0 0 0 0 1 1 1 1 2 2 2 3 3 3 3
8 8 8 7 7 8 8 8 8 8 7 7 8 8 8 9 9 9 9 8 8 8 7 6 6 6 5 5 5 5 5 5 5 5 4 4 5 5 5 5 5 5 5 5 4 4 4 4 3 3 3 3 3 3 3 3 3 2 2 2 2 2 2 1 1 0 0 -0 -0 -0 -0 -0 -0 0 0 0 1 1 1 1 1 2 2 2 3
7 7 7 7 7 7 8 8 8 8 8 8 8 8 8 8 8 9 8 8 7 7 7 7 7 6 5 4 5 5 5 5 5 4 4 4 4 4 4 4 4 4 4 4 3 3 3 3 3 2 2 2 2 3 2 2 2 2 2 2 2 1 1 1 0 -0 -0 -0 -0 -1 -1 -1 -1 -0 -0 -0 -0 0 0 1 1 1 1 1 1
7 7 7 7 7 7 8 8 8 8 8 8 8 7 7 8 8 8 8 7 6 6 7 7 6 5 4 4 4 5 5 5 4 4 4 3 3 3 3 3 3 3 3 3 2 2 2 2 2 1 1 1 1 2 2 1 1 1 2 2 2 1 0 0 -0 -0 -0 -1 -0 -1 -1 -0 -0 -0 -0 -0 -0 -0 0 0 0 0 0 1 1
7 6 7 7 7 7 8 8 8 8 8 8 8 7 7 7 7 7 7 7 6 6 6 6 5 4 4 4 4 4 4 4 4 4 3 3 3 2 2 2 2 2 2 2 1 1 1 1 1 1 0 0 0 1 1 1 1 1 2 2 1 1 0 0 0 -0 -0 -0 -0 -0 -0 0 0 0 -0 -0 -0 -0 0 0 -0 -0 -0 0 1
6 6 6 7 7 7 8 8 8 8 8 7 7 7 7 6 6 6 6 6 6 6 6 5 4 4 4 4 4 4 4 4 4 4 3 2 2 2 2 2 2 1 1 1 0 0 1 1 1 -0 -1 -0 -0 0 1 1 1 1 1 1 1 1 1 1 1 1 1 1 1 1 0 0 0 0 0 -0 -0 0 0 0 0 0 0 0 0
6 6 6 7 7 8 8 8 8 8 7 7 7 6 6 6 6 6 5 5 5 5 5 5 4 4 4 4 4 4 4 4 3 3 3 2 2 1 1 1 1 1 1 0 -0 -0 0 1 0 -0 -1 -1 -0 0 1 1 2 2 1 1 1 1 1 1 1 1 1 1 1 1 1 1 1 1 0 0 0 0 0 0 0 0 0 0 0
6 6 7 7 8 8 8 8 8 7 7 7 6 6 6 6 6 5 5 5 5 5 5 5 4 4 4 4 4 4 3 3 3 2 2 2 1 1 1 1 1 1 0 -0 -0 -0 0 0 -0 -0 -0 -0 -0 0 1 1 2 2 2 2 1 2 2 2 2 2 2 2 2 2 1 1 1 1 1 1 1 0 0 0 0 0 0 0 0
6 6 6 7 8 8 8 8 7 7 6 6 6 6 6 6 5 5 4 4 4 5 5 5 4 4 4 4 3 3 3 2 2 2 2 2 1 1 1 1 1 1 1 0 -0 -0 -0 -0 -0 -0 0 0 0 1 1 1 1 1 2 2 1 1 1 2 2 2 2 2 2 2 2 2 2 1 1 1 1 1 1 1 1 1 1 1 1
6 6 6 7 8 8 8 8 7 6 6 6 6 5 5 5 5 4 4 4 4 5 5 4 4 4 4 3 3 3 3 2 2 2 2 2 2 1 1 1 1 1 1 1 1 0 0 0 -0 0 0 1 1 1 1 1 1 1 1 1 1 1 1 1 1 1 2 2 2 2 2 2 2 2 2 2 2 2 2 1 1 2 2 2 1
6 6 6 7 8 8 8 8 7 6 6 6 5 5 5 5 5 4 4 4 4 5 4 4 4 3 3 3 3 3 3 2 2 2 2 2 2 2 1 1 1 1 1 1 1 1 1 0 0 0 0 1 1 1 2 2 1 1 1 1 1 1 1 1 1 1 2 2 2 2 2 2 2 2 2 2 2 2 2 2 2 2 2 2 2
7 7 7 7 7 8 8 8 7 7 6 6 5 5 5 5 4 4 4 4 4 5 4 4 4 3 3 3 3 3 3 2 2 2 2 2 2 2 1 1 2 2 2 1 1 1 1 1 0 0 1 1 1 1 1 1 1 1 1 1 1 1 1 1 1 1 1 2 2 2 2 2 2 2 2 2 2 2 2 2 2 2 2 2 2
7 7 7 7 7 8 8 8 8 7 6 6 5 5 5 5 5 4 4 4 4 5 4 4 4 4 3 3 3 3 3 3 3 3 3 3 3 2 2 2 2 2 2 2 1 1 1 1 1 1 1 1 1 1 1 1 1 1 1 1 1 1 1 1 1 1 1 2 2 2 2 2 2 2 2 2 2 2 2 2 2 3 3 3 3
7 7 7 7 7 7 8 8 8 7 6 5 5 5 5 5 5 4 4 4 4 5 4 4 4 4 4 3 3 3 3 3 3 3 3 3 3 2 2 2 2 2 2 2 2 1 1 1 1 1 1 0 0 0 1 1 1 1 1 1 1 1 1 1 1 1 1 2 2 2 2 2 2 2 2 2 2 2 2 2 2 3 3 3 3
7 7 7 7 7 7 8 8 8 7 6 6 5 5 5 5 5 4 4 4 4 4 4 4 4 4 4 4 4 4 4 4 4 4 4 4 3 2 2 2 1 2 2 2 2 1 1 1 1 1 0 0 0 0 0 1 1 1 1 1 1 1 1 1 1 1 1 2 2 2 2 2 2 2 2 2 2 2 2 2 2 2 2 3 3
7 8 8 7 7 7 7 8 8 7 6 6 5 5 5 5 5 4 4 4 4 4 4 4 4 4 4 4 4 4 4 4 4 4 4 4 3 2 2 1 1 2 2 2 1 1 1 1 1 1 0 -0 -0 -0 -0 0 0 0 0 0 1 1 1 1 1 1 1 2 2 2 2 2 2 2 2 2 2 2 2 2 2 2 2 2 3
Height
766 767 769 772 776 780 784 788 792 796 798 799 801 802 804 805 807 808 810 811 812 813 814 814 815 815 816 817 818 819 820 821 823 823 824 825 826 827 828 829 831 832 834 835 835 835 837 838 839 840 841 842 843 844 845 846 847 848 848 848 849 849 850 851 853 856 859 860 861 862 865 867 868 870 870 871 872 873 873 874 874 875 875 876 876
763 765 768 771 775 778 782 786 791 795 798 801 802 803 804 805 807 808 809 811 812 813 813 813 814 815 815 817 817 819 820 821 822 823 823 824 825 826 827 828 829 831 832 834 835 835 836 837 838 839 840 842 843 844 845 846 846 847 847 848 848 849 850 851 852 855 857 859 860 861 863 865 867 868 868 869 870 872 872 873 873 874 874 874 875
761 763 766 770 773 777 781 784 789 794 798 800 802 803 805 806 807 808 809 810 811 812 813 813 814 814 815 816 817 818 820 820 822 823 823 824 824 825 826 827 829 830 831 833 834 835 836 837 838 839 840 841 842 844 845 845 846 846 846 847 847 848 850 850 851 854 856 858 859 860 862 864 865 866 867 867 869 870 871 872 872 872 873 873 873
761 763 765 768 771 774 778 782 788 793 796 799 802 803 805 806 807 808 808 809 810 811 812 813 813 814 815 816 817 818 819 820 821 822 823 824 824 825 826 827 828 829 830 832 833 834 835 836 837 839 840 841 842 843 844 844 845 845 846 846 847 848 850 851 851 853 856 857 858 858 859 861 863 864 865 865 867 868 869 870 871 871 871 871 871
762 765 766 768 771 772 775 779 785 790 794 797 800 802 804 805 806 807 808 809 810 811 811 812 813 813 814 815 816 817 818 819 820 821 822 823 823 824 825 826 828 828 830 831 832 833 834 836 837 838 839 841 842 843 844 844 845 845 846 846 847 848 850 851 852 853 854 855 856 857 858 859 861 862 863 863 864 867 868 868 868 868 868 868 868
767 769 770 770 772 773 774 777 782 787 792 795 798 801 803 805 806 807 808 808 809 811 811 812 812 813 814 814 815 816 817 818 820 821 822 822 823 824 825 826 827 828 829 830 831 832 833 835 837 838 839 841 842 842 843 844 845 845 846 846 847 848 849 850 851 853 854 854 855 856 856 858 859 860 861 861 862 863 865 865 865 865 866 865 865
771 771 772 773 774 775 775 778 782 786 790 793 797 800 802 804 805 806 807 808 809 810 811 811 812 812 813 813 813 815 816 817 819 820 821 822 823 823 824 826 826 827 829 830 830 832 833 834 836 838 839 840 841 842 842 843 845 845 845 846 846 846 848 849 851 852 853 854 855 855 856 857 858 859 860 860 859 860 861 862 862 862 862 862 862
773 772 773 774 775 774 775 779 783 786 789 793 796 799 801 803 805 805 806 807 809 810 810 811 812 812 813 813 813 814 816 817 819 820 821 822 823 824 824 826 826 827 829 830 830 832 834 835 836 837 839 840 841 842 842 843 844 844 845 845 845 846 847 849 850 851 852 853 854 855 855 856 856 857 858 858 858 859 859 859 859 859 860 860 859
775 774 773 774 774 773 773 778 783 785 789 792 795 798 800 802 804 805 806 807 808 810 810 811 811 812 812 813 814 815 816 818 819 820 821 822 823 824 825 826 827 828 829 830 832 833 834 835 836 838 839 840 841 842 842 843 843 844 844 844 845 847 848 849 851 851 852 853 853 854 855 855 855 856 856 856 857 858 858 858 858 858 858 858 858
776 774 772 773 775 772 771 777 782 785 787 791 794 797 799 802 803 805 806 807 808 809 810 811 811 811 812 813 815 816 817 819 820 821 822 823 824 825 826 827 828 829 830 831 833 834 835 836 837 838 839 840 841 842 843 843 844 844 845 845 846 847 848 850 851 851 852 853 853 854 854 855 855 855 855 856 856 857 857 857 857 857 857 856 856
775 774 772 774 777 775 773 776 782 785 786 789 793 796 799 801 803 805 806 806 808 809 810 811 811 811 813 814 815 817 818 820 821 821 822 823 824 825 826 827 828 829 830 832 833 834 835 836 837 838 839 840 841 842 843 844 844 845 846 846 847 848 849 850 851 851 852 853 853 854 854 854 854 854 855 855 856 856 856 856 856 856 856 855 855
772 772 772 775 779 779 776 778 784 787 787 789 793 795 797 800 802 804 805 806 808 810 810 810 811 812 813 814 816 818 819 820 821 822 823 824 825 825 826 827 828 829 830 831 832 834 835 836 837 838 839 840 842 843 843 844 845 846 847 848 848 849 849 850 851 852 852 853 853 853 853 853 853 854 854 854 854 854 854 854 854 854 854 854 854
772 771 771 774 777 779 779 781 785 786 786 789 792 795 797 800 802 804 805 806 808 809 810 810 811 812 813 815 817 819 820 821 822 823 823 824 825 826 826 827 828 829 830 831 832 833 834 836 837 838 840 840 842 843 843 844 845 846 847 848 848 849 850 850 851 851 852 852 853 852 853 853 853 853 853 853 853 853 853 853 853 852 852 852 852
774 771 772 773 776 779 781 783 785 785 786 789 792 795 798 800 802 803 804 806 807 809 810 811 812 813 814 816 818 819 821 822 823 823 824 825 826 826 827 828 828 829 830 831 832 833 835 836 837 838 840 841 842 843 843 844 845 846 847 847 848 849 849 849 850 850 851 851 851 851 852 852 852 852 852 851 851 851 851 851 851 850 850 849 849
777 774 776 776 778 781 782 784 785 786 788 790 792 795 799 801 803 804 805 807 808 809 811 812 813 815 816 817 819 820 822 823 824 824 825 825 826 827 828 828 829 830 831 832 833 834 835 836 837 839 840 841 842 843 843 844 845 846 847 847 848 848 849 849 849 849 850 850 850 850 850 851 851 850 850 850 850 850 850 850 849 849 848 847 847
782 780 782 781 781 783 784 785 787 788 790 792 793 797 800 802 804 805 806 808 809 810 812 814 815 816 817 819 820 821 823 824 824 825 825 826 827 828 829 830 830 831 832 834 834 835 836 836 837 839 840 841 842 843 843 844 845 845 846 847 847 847 848 848 848 848 848 848 848 849 849 849 849 849 849 849 848 848 848 848 847 847 846 844 844
790 789 790 788 786 787 788 788 790 791 793 795 797 799 801 803 805 807 808 810 810 811 813 815 817 818 819 820 822 823 824 825 826 826 826 827 827 828 829 830 831 832 834 834 835 835 836 837 838 839 840 840 841 842 843 843 844 845 845 846 846 846 847 847 847 846 846 846 846 847 847 847 847 847 847 847 847 847 846 845 845 845 844 842 841
798 797 797 795 792 792 792 793 794 795 797 800 802 802 804 805 807 808 810 811 812 813 815 816 818 820 820 822 823 824 825 826 827 827 827 828 828 828 829 830 831 833 834 835 835 835 836 837 838 839 839 840 840 841 842 842 843 844 844 844 845 845 845 845 845 844 844 844 844 844 844 844 844 844 844 844 844 844 843 842 842 843 842 840 838
805 805 805 803 800 798 798 799 799 800 801 804 806 806 807 808 809 810 811 812 813 815 817 818 820 821 822 823 825 826 827 827 828 829 828 829 829 829 830 830 831 833 834 836 837 836 837 838 838 839 839 839 840 841 841 842 842 843 844 844 844 844 844 844 843 843 842 842 842 841 841 841 841 840 840 840 840 840 839 838 838 838 838 836 835
810 811 810 807 806 805 804 804 805 805 806 808 810 812 812 811 811 812 813 813 815 817 819 820 821 822 824 825 826 827 828 828 829 830 830 830 831 831 831 832 833 834 835 837 838 838 839 839 839 839 840 840 841 841 841 842 842 842 843 843 843 843 842 842 842 842 841 840 839 839 838 838 837 837 836 836 835 835 834 834 833 833 833 832 832
815 815 813 810 810 809 809 809 810 810 810 812 814 816 816 816 815 815 815 816 818 819 821 821 822 824 825 826 828 828 829 830 830 830 831 831 831 832 832 833 834 835 836 837 838 840 840 840 839 840 840 840 841 841 841 841 841 841 841 841 841 841 840 840 840 839 839 838 837 836 836 835 834 834 833 832 831 831 830 829 829 829 829 828 828
818 818 817 815 814 814 814 814 814 814 815 816 817 818 819 818 818 818 818 819 820 821 822 822 823 825 826 828 829 829 830 831 831 831 832 832 832 833 833 833 834 835 836 837 838 839 840 840 839 839 839 840 840 840 840 840 840 840 840 839 839 839 838 838 837 837 836 835 834 834 833 833 832 831 830 829 828 828 827 826 825 825 825 824 824
822 821 821 820 819 819 819 818 818 818 819 819 820 821 821 821 821 820 821 821 822 822 823 824 825 826 827 829 830 831 831 832 832 833 833 833 833 834 834 835 835 835 836 837 838 838 839 839 839 839 838 838 838 839 839 838 838 838 838 838 838 837 837 836 836 835 834 834 833 832 831 831 830 829 828 827 826 825 824 823 823 822 821 820 819
824 824 824 823 822 822 822 821 820 820 821 822 823 824 825 825 824 823 823 823 823 824 825 826 827 828 828 830 831 832 832 833 833 834 834 834 835 835 835 835 836 836 837 838 838 839 839 839 839 839 838 837 837 837 837 837 837 837 837 837 837 836 836 835 835 834 833 832 832 830 829 829 828 827 826 825 824 823 821 820 820 819 817 816 815
826 826 825 825 825 825 825 824 824 824 825 826 827 827 827 827 827 826 826 825 826 826 827 827 828 829 830 831 832 833 833 833 834 835 835 836 836 836 836 836 836 837 837 838 838 839 838 838 838 837 837 836 836 836 836 836 836 836 836 836 836 835 835 835 834 833 833 832 831 830 829 828 827 826 825 824 822 821 820 819 818 816 814 813 812
829 828 828 828 828 828 828 828 828 828 829 830 830 831 831 830 829 829 828 828 829 829 829 829 830 830 831 832 833 834 834 834 835 835 836 836 836 837 837 837 837 838 838 838 838 838 837 837 836 836 836 836 835 835 835 835 835 835 835 835 835 834 834 834 833 833 832 832 831 830 829 827 826 824 823 822 820 820 819 818 817 815 813 811 810
831 831 831 831 830 830 830 830 830 831 831 832 832 833 833 832 832 831 831 830 830 830 830 831 831 832 832 833 833 834 834 835 836 836 837 837 837 837 838 838 838 838 838 838 838 838 837 837 836 836 836 836 836 836 835 835 835 835 835 835 834 834 834 834 834 833 833 832 831 830 828 827 825 823 822 821 820 819 819 817 816 815 814 812 810
834 833 833 833 832 832 832 832 832 832 833 834 834 834 834 834 833 833 833 832 832 832 832 832 832 833 833 833 834 835 835 836 836 837 837 838 838 838 838 838 839 839 838 839 838 838 838 837 837 837 836 836 836 836 836 836 836 835 835 835 835 835 835 835 834 834 833 832 831 829 828 826 825 824 822 821 820 820 819 818 816 816 814 812 810
835 835 835 835 834 834 834 833 833 833 834 835 835 835 835 835 834 834 834 834 834 834 833 834 834 834 834 835 835 836 837 837 838 838 839 839 838 838 838 838 839 839 838 838 838 838 838 838 837 837 837 837 837 836 836 837 836 836 837 836 836 836 835 835 834 834 833 832 830 829 828 826 825 824 823 822 821 820 820 819 817 817 815 813 811
836 836 836 836 835 835 835 835 835 835 835 835 835 836 836 836 836 836 835 835 836 835 835 835 836 836 836 836 837 838 838 839 839 840 840 839 839 839 839 839 839 838 838 838 838 838 838 838 838 838 838 838 838 837 838 838 837 838 837 837 837 837 836 835 835 834 833 832 831 830 828 827 825 824 823 822 821 820 820 819 818 817 816 815 812
837 837 837 837 836 836 836 836 836 836 836 836 836 836 837 837 837 837 837 837 837 837 837 837 838 838 838 838 839 839 840 840 841 841 840 840 840 840 840 839 839 839 839 839 838 839 839 839 839 839 839 839 839 838 839 838 838 838 838 837 837 837 836 836 835 834 833 832 830 830 828 827 826 825 823 822 820 819 818 818 817 816 815 815 813
839 839 838 838 837 837 836 837 836 836 836 836 836 836 837 837 838 838 838 838 838 838 838 839 839 839 839 840 840 841 841 842 842 841 841 841 840 840 840 840 840 840 840 839 839 839 840 840 840 840 840 840 839 839 839 839 839 838 838 837 837 837 836 836 835 834 833 831 830 829 828 827 825 824 822 821 820 818 817 816 815 814 813 813 812
841 841 839 838 837 837 837 837 837 837 837 837 836 837 837 838 838 838 839 839 840 840 840 839 840 840 840 840 841 841 842 842 842 842 841 841 841 841 841 841 841 840 840 840 840 840 841 841 841 840 840 840 840 840 840 840 840 839 839 839 838 838 837 836 835 834 833 831 830 829 827 826 824 822 821 820 818 817 815 814 814 813 812 811 810
842 842 841 839 838 837 837 838 838 838 838 837 837 837 837 838 838 838 839 839 840 840 840 840 840 840 841 841 841 842 842 843 842 842 842 842 841 841 841 840 841 841 841 841 841 841 841 841 841 841 841 841 841 841 841 842 841 841 841 840 839 838 837 836 835 834 833 832 831 829 828 826 825 823 820 818 817 815 814 813 812 812 811 810 809
843 842 842 841 840 839 839 839 839 839 839 839 838 838 838 838 838 838 838 839 839 840 841 841 841 842 842 842 843 843 843 843 843 842 842 842 841 841 840 840 841 841 841 842 842 842 842 842 843 843 843 843 844 844 843 843 842 842 841 841 840 839 838 837 836 835 834 833 832 830 829 827 826 824 822 819 817 815 813 812 811 811 810 809 809
843 843 842 842 841 840 840 840 841 841 841 840 840 840 840 839 839 838 839 839 840 841 842 842 842 843 843 843 844 844 844 844 843 843 843 842 842 841 841 841 842 842 842 843 843 843 844 844 845 845 845 845 845 844 844 843 843 842 842 841 841 840 839 838 837 835 835 834 833 831 830 828 826 825 823 820 818 816 814 813 812 812 811 811 810
844 843 843 843 842 842 841 841 841 842 842 841 841 841 840 840 840 840 840 840 841 842 842 843 843 843 844 844 844 844 844 844 844 844 843 843 842 842 842 842 843 843 844 844 845 845 846 846 846 846 846 845 845 845 844 844 844 843 843 842 842 841 840 839 837 836 835 835 833 832 831 829 827 826 824 822 820 818 816 815 814 814 813 813 812
845 844 844 844 844 843 842 842 841 842 842 842 842 842 841 841 841 841 841 841 841 842 843 843 843 843 844 844 844 843 843 844 844 844 844 844 844 844 844 844 845 846 846 846 847 847 847 847 847 847 846 846 846 846 846 845 845 845 844 843 842 841 840 839 838 837 836 835 834 833 832 831 829 828 825 823 822 820 819 817 816 816 815 815 814
845 845 845 845 844 844 843 843 842 842 843 842 842 842 842 842 842 841 841 841 842 843 843 844 844 844 844 845 845 844 844 844 845 845 845 845 846 846 846 847 847 847 847 847 848 848 848 848 848 848 848 848 847 847 847 846 846 845 844 844 843 842 841 840 839 838 837 836 835 834 833 832 831 829 828 825 824 822 821 820 819 818 818 817 817
845 845 845 844 844 844 843 843 843 843 843 843 843 843 843 843 843 843 843 843 843 844 845 845 845 846 846 846 846 845 845 845 846 846 846 847 847 848 848 848 848 848 848 848 849 849 849 849 849 849 849 849 848 848 847 847 846 845 845 844 843 843 842 841 840 840 839 838 836 835 834 833 832 831 829 828 826 824 823 822 821 821 820 819 819
845 845 845 844 843 843 843 843 843 843 844 844 844 844 844 845 845 845 845 845 845 846 846 846 847 847 847 847 847 847 847 847 847 847 848 848 849 849 849 849 849 849 850 850 850 850 850 850 850 850 849 849 849 848 847 847 846 846 845 845 844 844 843 843 842 841 840 839 838 837 836 835 833 832 831 830 828 827 825 824 823 823 822 821 821
845 845 844 843 843 843 843 843 843 843 843 844 844 844 845 846 846 846 847 847 847 847 847 847 848 848 848 848 848 848 848 848 848 849 849 850 850 850 850 851 851 851 851 851 851 851 851 851 851 850 850 849 849 848 848 847 847 846 846 846 845 845 845 844 843 842 841 840 839 838 837 836 835 834 833 832 830 829 827 826 825 824 824 823 823
844 844 844 843 842 842 842 842 843 843 843 844 844 845 845 846 846 847 848 848 848 848 848 848 848 849 849 849 850 850 849 850 850 850 851 851 851 852 852 852 852 852 852 851 851 851 851 851 851 850 850 850 849 849 848 848 847 847 847 847 846 846 846 845 844 843 842 841 840 839 838 837 836 835 834 833 832 831 830 828 827 826 826 825 825
843 843 843 843 842 842 842 842 842 843 844 844 844 845 845 846 847 847 848 849 849 849 849 849 849 850 850 851 851 851 851 852 852 852 853 853 853 853 853 853 852 852 852 851 851 851 851 851 851 851 850 850 850 850 849 849 848 848 848 847 847 847 846 846 845 844 843 842 840 840 839 838 837 836 835 834 833 832 831 830 829 828 827 827 826
843 843 843 843 842 842 842 842 842 843 844 845 845 845 846 846 847 848 849 850 850 849 850 850 851 851 852 852 853 853 853 853 854 854 854 854 853 853 853 852 852 852 852 852 851 851 851 851 851 851 850 850 850 850 850 850 849 849 848 848 847 847 846 846 845 844 844 843 841 841 840 839 838 837 836 835 834 833 832 831 831 830 829 828 828
843 843 843 843 842 842 842 842 842 843 844 845 846 847 847 848 849 849 850 850 850 850 850 851 852 853 853 853 854 854 854 854 854 854 854 854 853 853 853 852 852 852 852 852 851 851 851 851 851 851 851 851 851 851 851 851 850 849 848 848 847 847 847 846 845 845 844 844 843 842 841 840 839 838 837 836 835 835 834 833 832 831 830 830 829
842 843 843 843 842 842 842 842 842 843 843 845 846 848 848 849 849 850 850 850 850 851 851 851 852 853 853 854 854 854 854 854 854 854 854 853 853 852 852 852 852 852 852 852 852 852 851 851 851 851 851 851 851 851 851 850 849 849 848 847 847 847 847 846 846 845 845 844 843 843 842 841 840 839 838 838 837 836 835 834 833 832 832 831 830
842 843 843 843 843 842 841 841 841 842 843 844 846 848 849 850 849 850 851 851 850 851 851 851 852 853 853 853 854 854 854 854 853 853 853 853 852 852 852 852 852 852 852 852 852 852 852 852 852 852 852 852 851 851 850 850 849 848 848 848 847 847 847 846 846 845 845 845 844 844 843 842 841 841 840 839 838 838 836 835 834 833 833 832 832
842 842 842 843 842 842 841 841 841 841 842 844 845 847 849 849 849 850 850 851 850 851 851 851 851 852 852 853 853 853 853 853 852 852 852 852 851 851 852 852 852 853 853 853 853 853 853 852 852 852 852 852 851 850 850 849 849 848 848 848 847 847 847 847 846 846 846 845 844 844 844 843 843 842 841 840 840 839 838 837 836 835 834 833 833
841 841 841 842 842 842 842 841 841 841 842 843 845 846 847 849 849 849 850 850 850 850 850 851 851 851 852 852 852 852 852 852 851 851 851 851 851 851 852 852 853 853 853 854 854 854 853 853 853 853 852 852 851 850 850 849 848 848 848 848 848 848 847 847 847 847 846 846 845 844 844 844 843 843 842 841 840 840 839 838 837 836 835 834 834
840 840 840 841 841 842 842 841 841 841 841 842 843 844 846 847 848 849 849 850 850 850 850 850 851 851 851 851 851 851 851 851 850 850 850 850 850 851 852 853 853 854 854 854 854 854 854 854 853 853 852 851 851 850 850 849 848 848 848 848 848 848 848 847 847 847 847 846 845 845 845 844 844 843 842 842 841 840 839 838 837 837 836 835 834
Wind_Speed
22 25 25 24 24 23 21 20 19 18 17 17 16 16 15 15 14 13 12 11 10 9 8 7 7 6 7 7 8 8 8 7 7 7 6 5 6 8 9 10 11 13 16 13 11 12 14 14 13 13 14 14 16 16 14 16 17 16 16 14 9 12 15 17 17 12 10 12 18 22 20 18 18 18 19 17 16 17 18 16 14 14 15 16 15
24 28 27 24 26 25 23 23 21 20 19 18 17 17 16 15 14 13 12 11 10 9 8 7 6 6 6 6 7 7 8 8 7 7 7 5 6 8 7 8 9 10 13 13 12 13 14 14 13 14 14 14 16 16 15 16 15 16 18 13 9 11 12 16 21 16 12 12 17 22 22 19 19 19 20 19 17 17 18 17 18 17 15 16 17
27 30 29 27 28 27 25 25 24 21 20 19 17 17 16 16 14 14 13 11 10 8 8 7 6 6 6 7 7 7 7 8 7 7 8 7 7 7 6 7 9 10 10 12 12 11 13 14 13 14 14 15 17 16 15 17 17 17 16 11 10 12 12 14 22 20 15 14 15 20 23 20 18 20 21 20 18 18 17 16 18 18 17 18 18
28 29 28 28 29 28 27 27 26 24 20 19 18 17 17 15 14 13 12 11 9 8 8 7 6 7 8 8 8 8 8 7 7 7 7 7 8 8 7 7 9 9 10 12 12 11 13 14 12 14 15 15 16 16 16 18 18 15 12 11 11 13 11 11 20 21 18 16 15 18 23 21 18 20 22 21 19 18 16 16 18 18 18 19 19
25 26 26 26 27 29 29 27 27 25 21 20 19 17 16 15 14 13 12 11 9 8 8 7 7 8 8 9 9 8 8 7 7 7 6 6 8 8 9 8 8 9 9 12 15 14 13 14 14 16 17 13 14 16 16 18 17 13 11 13 10 12 11 8 15 22 22 20 18 17 20 21 18 17 20 22 21 18 16 18 19 19 20 21 21
16 20 22 24 25 26 26 26 27 25 22 21 20 18 16 15 14 13 12 12 9 8 8 7 9 9 7 8 10 10 9 8 8 7 6 6 6 7 10 8 7 9 8 10 15 13 11 14 13 14 16 13 14 14 12 13 14 11 12 15 12 14 12 4 7 15 16 18 20 19 17 20 19 16 16 20 22 21 20 20 21 21 21 23 23
11 16 19 22 24 23 22 24 25 23 23 22 20 18 17 15 15 13 12 12 9 8 8 6 7 9 6 6 11 12 11 11 11 9 6 5 5 7 10 6 4 6 6 9 13 11 8 11 9 9 13 12 14 13 7 7 7 7 8 11 11 16 16 7 4 6 4 7 15 16 14 18 20 17 15 16 19 23 24 23 22 22 22 23 25
8 13 16 18 21 22 22 24 25 22 23 24 21 19 18 16 15 13 13 13 10 8 8 6 6 9 9 10 12 12 11 13 12 10 9 7 6 7 7 6 6 7 7 9 12 10 8 9 7 7 10 9 11 13 7 5 2 3 2 1 4 12 14 8 7 7 6 5 8 9 7 10 13 13 13 13 13 17 21 22 24 23 21 21 23
8 11 14 17 21 25 25 24 24 23 24 24 21 19 18 17 16 15 14 12 10 9 9 8 7 10 11 11 11 9 10 11 10 10 11 11 7 4 4 4 6 5 5 8 9 8 8 9 9 9 10 8 8 11 10 6 1 1 2 3 4 5 5 4 5 7 7 7 7 8 7 6 8 11 13 14 13 12 12 13 17 18 16 15 17
9 13 18 18 19 25 27 23 22 23 25 23 21 20 19 17 17 16 14 13 12 11 10 8 8 10 10 9 9 8 8 9 9 9 9 9 8 6 6 5 4 4 4 4 4 5 7 9 9 9 9 8 8 8 9 7 2 2 1 1 1 3 1 1 2 3 5 7 7 8 9 10 11 11 12 13 14 15 15 13 11 11 11 11 11
12 14 20 18 16 21 26 25 23 23 24 24 22 20 19 18 18 17 15 15 14 12 11 11 12 13 11 9 8 7 6 6 6 7 7 6 7 9 8 6 6 5 5 6 6 6 8 10 9 7 6 7 7 6 6 6 4 2 1 1 0 1 2 1 2 3 5 7 6 6 7 9 10 11 11 13 15 16 17 17 16 15 14 12 12
15 15 18 18 18 20 23 26 24 23 23 23 21 19 18 19 19 17 16 16 14 13 13 14 14 15 13 10 9 7 6 5 4 4 5 4 6 9 9 6 4 3 3 4 4 5 9 10 9 7 7 7 5 4 3 3 3 2 1 2 2 2 2 3 4 5 6 8 8 8 7 8 9 9 9 11 12 12 14 16 18 20 19 18 17
6 12 14 14 16 18 22 25 24 23 24 23 22 21 21 21 19 18 17 15 14 15 15 15 14 14 12 11 10 9 7 6 4 4 4 4 5 5 6 6 3 2 3 4 6 6 8 11 12 10 9 9 6 4 2 1 2 2 3 3 4 5 6 6 7 8 10 10 11 11 9 9 11 10 9 10 10 10 11 13 16 17 17 18 17
17 20 19 18 16 16 19 22 23 25 25 25 24 23 22 21 20 20 19 18 18 18 17 15 14 12 12 12 11 10 9 7 6 5 5 4 5 4 5 7 5 5 6 7 8 9 9 10 11 10 8 7 7 6 5 4 3 3 3 4 4 6 7 9 10 10 12 13 14 15 15 14 15 14 13 13 13 13 13 14 15 15 16 17 17
28 26 23 22 23 21 21 22 23 25 25 25 26 24 22 21 20 20 21 20 19 18 16 15 14 13 13 13 12 11 10 8 6 6 6 6 6 5 5 6 6 7 7 8 7 7 8 9 8 7 5 5 5 4 4 3 2 2 2 3 5 6 6 7 8 9 11 12 14 16 17 18 19 19 18 18 18 17 17 17 18 18 19 20 20
34 33 28 24 24 24 24 24 24 24 25 26 25 23 22 21 19 18 19 18 18 17 16 15 14 14 14 13 12 12 10 8 6 6 7 7 7 7 5 3 5 7 6 6 6 6 8 10 9 6 3 4 4 2 1 2 4 4 5 5 6 7 8 9 10 10 10 11 12 14 16 18 19 20 20 20 20 21 21 21 20 20 21 21 19
34 34 31 26 26 25 24 25 26 25 25 24 24 23 21 20 18 18 18 19 19 19 18 17 15 14 13 12 12 12 11 9 7 6 6 7 8 8 5 3 6 6 5 5 5 6 6 7 6 4 3 3 2 2 3 4 5 5 5 6 6 8 9 9 10 12 12 13 14 15 16 18 19 21 22 23 24 24 23 22 20 20 21 19 17
33 33 31 29 29 28 27 27 27 26 25 23 22 22 21 20 19 19 19 20 20 19 18 18 17 15 14 12 11 11 12 10 8 7 7 6 7 9 9 9 9 8 7 7 6 6 6 5 3 2 1 1 2 3 4 4 5 5 6 7 8 8 9 9 10 12 14 16 17 18 19 20 21 23 25 27 28 27 27 27 26 23 22 20 19
30 29 29 30 31 31 30 28 27 27 26 23 20 20 20 20 19 18 19 19 18 16 16 17 17 15 14 13 11 11 11 10 9 8 7 6 6 7 9 11 12 11 11 11 8 5 6 7 5 3 2 3 3 4 5 5 6 7 8 10 10 10 11 12 13 15 17 18 19 20 21 22 22 24 26 26 27 27 27 29 29 27 26 26 24
28 28 28 29 31 31 30 29 28 27 26 24 21 19 18 18 18 18 18 19 18 16 15 15 15 14 12 10 9 9 9 8 8 7 7 6 6 5 6 8 9 8 9 11 10 8 8 7 6 5 4 5 6 7 8 9 10 12 13 14 13 13 15 17 18 20 21 23 24 25 26 26 27 27 27 27 28 28 28 29 29 29 30 29 27
26 27 28 30 30 30 29 28 26 26 25 24 21 18 16 16 16 16 16 15 15 14 13 13 13 12 11 10 10 10 10 10 9 8 7 6 6 6 5 5 5 5 6 7 8 10 11 8 7 7 7 7 9 12 14 15 16 16 16 16 15 15 18 19 20 21 23 24 25 25 25 26 26 27 27 27 28 28 30 31 30 30 30 30 29
25 26 26 27 27 26 26 26 25 24 23 22 21 19 17 16 16 15 14 13 13 13 13 13 13 13 13 12 13 13 14 14 12 11 9 8 8 9 8 7 6 5 3 3 3 4 6 6 7 10 10 11 13 14 15 16 16 15 14 14 13 14 15 17 18 20 22 23 23 23 23 23 24 25 25 26 26 26 27 28 28 28 28 30 31
22 22 22 23 23 23 22 22 22 22 22 21 21 19 16 15 15 14 12 11 11 11 10 10 12 14 14 13 13 13 14 15 15 14 14 12 11 11 11 10 10 8 6 5 5 5 4 5 9 12 13 14 14 13 13 12 13 12 12 11 11 12 14 15 17 18 19 20 21 22 23 23 23 25 26 27 28 28 28 29 29 29 30 31 33
19 19 19 19 21 21 21 21 21 20 19 18 18 17 15 14 15 14 12 11 11 11 9 8 9 12 13 12 11 10 11 13 14 14 14 14 13 13 12 12 12 11 9 7 6 5 6 8 10 11 12 13 12 11 11 10 9 9 9 8 9 10 12 14 16 17 18 18 19 20 21 20 21 21 21 22 24 25 27 28 29 30 32 31 31
16 17 18 18 17 17 18 19 18 17 16 15 15 16 15 15 15 14 13 13 13 12 11 10 10 10 11 11 10 9 9 11 13 13 13 13 13 12 13 12 11 11 10 7 4 6 9 12 13 12 10 9 9 10 11 10 9 9 9 10 10 11 12 14 15 16 17 17 18 19 20 19 19 19 21 23 24 24 23 24 26 28 29 26 23
14 15 17 17 15 14 14 15 15 15 14 14 14 14 13 13 13 13 12 12 12 10 9 9 9 9 9 8 7 9 11 13 13 11 10 12 11 10 10 11 10 10 10 7 7 9 12 14 13 11 10 10 10 11 11 11 10 11 11 12 12 12 13 14 14 15 16 18 19 20 21 21 21 21 22 23 23 22 23 25 26 25 22 20 17
14 14 14 14 14 13 12 13 13 13 12 13 14 15 14 12 11 12 12 12 12 12 12 11 11 10 8 7 8 12 13 12 10 9 10 11 9 6 6 6 7 7 6 6 8 10 12 10 9 9 10 10 10 10 11 11 12 12 13 13 13 13 14 14 15 16 17 18 18 20 22 22 21 20 20 20 21 23 25 27 29 28 21 16 14
14 14 14 12 12 12 11 10 11 12 12 13 14 15 14 13 12 12 12 12 12 14 14 14 15 15 13 11 13 15 13 11 10 10 11 11 8 6 4 3 3 4 4 6 8 9 9 9 9 9 10 10 10 11 13 14 14 14 14 15 14 14 15 16 16 16 17 19 21 22 23 22 21 20 19 19 20 22 24 26 29 31 24 14 12
11 13 13 12 10 11 11 10 9 10 12 14 14 14 13 12 13 13 12 11 11 10 9 10 13 15 13 13 14 13 12 12 11 10 9 9 8 8 7 7 7 6 6 7 7 8 9 10 10 11 11 12 13 15 15 15 15 15 15 16 16 16 16 17 17 18 20 22 22 22 21 21 21 20 19 18 17 18 21 24 26 28 25 14 10
10 11 11 11 10 9 10 10 8 7 8 10 13 15 14 14 14 14 14 13 11 10 9 9 11 11 10 10 12 12 11 10 9 8 7 7 8 8 9 9 9 8 7 7 7 9 10 11 12 13 15 15 16 16 15 15 16 15 16 17 17 17 18 18 18 20 22 21 20 20 20 20 21 20 20 19 19 19 20 23 24 25 23 19 14
11 10 9 10 9 8 8 9 8 7 6 6 10 13 14 14 15 15 15 15 14 13 13 12 11 10 9 9 10 10 9 8 8 7 7 7 7 9 9 9 10 10 9 8 7 8 10 11 12 13 13 13 14 15 15 15 16 16 16 17 17 18 18 18 19 21 20 20 21 21 21 20 20 20 20 20 20 20 21 21 22 23 23 23 20
12 14 13 10 8 6 8 9 8 7 7 5 5 10 12 13 13 13 12 12 14 15 15 15 14 13 12 11 9 8 8 8 8 8 7 7 7 7 7 8 9 10 10 9 8 8 9 10 11 11 12 13 14 15 16 15 16 17 17 17 17 17 17 18 19 20 20 22 24 23 22 22 22 22 22 22 22 22 22 20 20 22 24 25 23
10 11 12 12 11 8 7 8 8 7 7 7 5 6 9 10 10 9 9 9 11 12 13 14 15 16 16 14 11 9 10 10 9 8 7 6 6 7 7 5 4 7 9 10 11 11 12 12 12 13 14 15 15 16 16 15 15 16 17 17 17 17 16 17 18 19 21 23 24 23 22 23 23 24 25 25 24 23 23 21 18 19 22 23 22
6 7 9 10 11 10 9 9 11 10 8 9 9 8 6 5 6 7 7 7 8 9 10 11 13 16 18 17 14 12 12 13 12 10 8 6 6 8 9 6 4 5 8 10 11 13 14 14 15 15 15 15 15 15 15 14 14 14 15 16 16 16 15 16 17 18 20 20 20 20 22 22 23 25 26 25 23 21 21 21 19 18 19 19 17
3 3 6 7 8 9 10 11 14 14 11 10 11 9 7 6 5 5 5 5 6 8 7 8 11 15 18 18 15 13 13 14 14 12 9 8 8 10 11 11 9 9 10 11 13 14 14 14 14 14 13 12 12 12 13 14 14 14 14 15 15 15 14 15 16 17 18 18 18 19 21 21 21 20 19 17 16 14 13 14 13 13 14 13 11
5 4 6 9 11 11 9 9 11 11 8 6 7 6 5 6 7 6 6 7 6 6 8 8 9 12 15 16 14 11 11 12 14 14 11 10 12 13 12 13 13 13 13 14 13 13 12 12 11 11 11 11 11 12 12 12 13 13 13 14 14 15 14 14 15 16 16 15 15 16 17 16 16 15 13 11 11 11 11 10 8 6 5 3 2
6 6 8 10 11 12 9 5 7 8 5 4 6 7 7 7 7 7 6 8 8 6 5 7 7 7 11 13 12 10 10 9 10 13 12 11 13 15 14 13 13 12 12 13 12 11 11 10 10 10 11 11 11 12 12 12 11 12 12 11 12 13 13 13 13 14 13 12 13 14 14 14 13 13 12 12 13 13 13 13 13 12 12 10 9
4 5 7 8 7 8 8 5 5 6 4 3 4 7 9 8 7 7 6 9 10 9 7 7 7 9 12 13 10 9 10 8 9 12 13 11 12 13 12 11 11 10 10 11 10 9 10 10 10 10 10 10 10 11 11 11 10 10 10 10 11 11 10 11 12 11 11 12 13 14 14 14 15 14 14 15 15 15 15 14 15 15 15 14 14
3 3 5 7 6 6 7 6 5 4 4 3 3 4 6 8 10 10 9 11 12 10 9 10 11 13 15 14 9 8 10 10 10 11 11 11 11 11 10 10 10 10 10 10 9 9 10 10 10 9 8 8 9 10 10 10 10 10 10 10 10 9 9 10 11 12 12 12 13 13 14 14 15 15 15 15 15 15 15 15 15 15 14 14 14
3 2 3 5 6 6 5 4 4 4 6 7 6 6 6 7 11 13 12 11 11 8 7 7 10 12 14 11 7 8 10 10 9 9 9 9 9 9 8 9 9 9 9 9 8 8 9 8 8 8 6 6 7 9 10 10 10 10 10 9 8 9 10 11 12 13 13 13 13 14 14 13 13 14 14 15 15 15 15 15 15 14 13 13 12
2 4 5 6 7 5 3 2 3 4 5 6 5 7 7 6 7 9 11 10 8 5 5 6 8 11 12 8 6 8 10 9 8 9 9 8 8 8 8 8 8 7 8 7 6 7 7 7 7 7 7 6 7 9 10 10 9 9 10 10 9 9 9 9 10 11 13 13 14 14 14 14 14 14 14 14 14 14 14 14 13 13 13 13 13
3 5 5 6 8 6 4 5 6 4 3 4 6 7 7 6 6 6 7 7 5 5 4 5 7 10 12 9 6 8 9 8 8 9 8 7 7 6 6 6 6 6 6 6 6 6 7 7 7 8 8 8 8 8 10 11 10 9 9 9 9 9 9 8 8 8 9 10 12 12 12 13 13 14 14 13 13 13 13 13 12 12 12 12 12
3 3 4 6 7 6 4 4 5 5 7 7 7 7 6 6 6 5 4 3 3 4 3 4 6 8 10 9 7 8 9 8 8 7 6 6 6 6 5 6 6 6 6 6 6 6 6 7 8 8 9 10 9 9 10 11 10 9 8 8 9 9 8 8 8 8 9 9 9 9 10 11 11 11 12 13 12 12 13 13 12 12 11 11 10
3 1 3 5 6 6 3 2 4 6 6 5 4 5 6 6 6 5 3 1 3 3 3 4 5 5 7 7 7 7 8 7 7 6 5 5 6 6 6 6 6 6 7 7 7 6 6 7 8 9 9 9 9 9 11 10 9 8 8 8 8 8 7 8 9 10 11 11 10 9 9 10 10 9 9 9 10 11 11 11 10 10 9 8 8
3 1 1 4 6 5 2 5 9 9 7 6 5 6 7 5 4 4 2 1 3 0 3 4 4 4 4 5 5 5 6 6 6 5 5 5 6 6 6 6 6 7 6 7 7 7 7 6 7 8 8 8 7 8 9 9 8 7 5 5 4 4 5 6 7 8 11 13 12 11 11 10 10 11 10 8 8 9 9 8 8 9 9 8 6
2 1 1 5 6 4 2 5 8 8 7 6 5 5 4 3 2 2 1 3 3 1 5 5 3 3 3 3 3 4 5 5 5 4 4 5 5 5 5 5 6 6 6 6 7 7 7 7 7 7 7 7 7 7 7 7 7 5 3 3 2 1 3 5 6 7 8 10 12 11 11 11 11 13 14 11 8 9 9 8 7 7 8 8 8
1 1 2 5 5 5 5 1 4 5 6 7 6 4 2 1 1 3 3 2 2 2 5 5 4 4 3 3 3 3 3 4 4 4 4 3 4 4 5 5 5 5 6 6 7 7 6 7 7 6 5 5 5 4 4 4 3 2 4 5 3 2 3 4 4 4 5 8 10 10 10 11 11 12 13 13 11 10 11 10 8 7 7 8 9
3 1 2 4 5 7 6 1 2 3 6 9 8 4 1 2 2 3 3 3 3 3 3 5 5 4 4 3 3 3 3 2 2 3 3 3 3 4 6 6 6 6 6 6 6 6 6 6 6 5 5 5 4 2 1 1 1 3 4 4 4 3 3 3 3 4 4 7 9 9 8 9 10 9 10 11 11 10 10 11 11 10 8 8 9
5 4 3 3 5 7 6 3 1 5 9 10 7 4 1 3 2 2 2 3 4 3 2 3 4 4 3 2 2 2 2 2 1 2 2 2 3 4 5 6 7 6 5 5 5 5 6 6 6 5 4 5 4 3 3 2 2 3 3 3 3 3 3 3 3 4 5 6 6 6 6 7 8 7 7 8 9 9 9 10 11 11 10 9 9
10 9 6 4 3 5 7 7 1 7 11 8 6 6 3 3 2 3 3 4 4 2 2 2 3 3 2 2 1 1 1 1 1 1 1 2 3 3 4 5 5 5 4 4 4 4 4 4 5 5 4 3 3 4 4 3 3 3 3 3 4 4 3 2 2 3 4 5 5 5 5 6 8 7 7 7 7 7 7 8 9 9 9 9 8
12 8 4 2 2 4 7 9 3 7 11 9 7 8 6 3 3 4 4 4 4 3 2 2 2 2 1 1 1 2 1 1 1 1 1 4 4 3 3 3 3 2 2 3 3 3 3 3 4 4 3 3 3 3 4 4 4 3 4 4 4 3 3 3 3 4 5 7 7 5 4 6 7 8 8 7 7 9 10 9 8 7 6 7 6
Wind_Direction
152 151 155 156 153 153 156 158 158 157 158 159 157 155 151 149 150 149 149 152 150 152 157 154 156 157 151 152 148 144 143 139 137 139 144 152 144 143 151 154 157 159 160 164 170 177 178 172 174 178 175 178 181 180 182 189 195 204 220 223 198 183 174 147 133 139 165 173 159 160 172 173 172 182 187 188 182 176 187 207 213 206 205 210 213
156 155 154 154 156 158 158 157 157 160 164 165 159 154 152 150 151 150 149 149 152 155 153 148 153 154 149 144 136 134 137 135 134 136 142 144 135 144 156 157 160 160 156 161 172 180 176 170 176 178 174 179 181 179 184 190 199 212 218 210 172 177 184 150 140 150 166 169 163 163 170 176 178 184 193 198 194 183 188 208 217 217 221 226 229
160 159 154 154 158 159 159 157 159 163 165 164 159 154 153 152 151 151 150 148 151 153 148 149 151 142 134 126 120 120 120 125 136 139 140 145 142 148 159 157 152 150 154 165 172 176 172 168 177 178 176 180 178 177 186 194 206 213 207 192 172 192 206 165 151 160 169 175 177 167 167 180 186 185 196 207 203 195 195 210 220 222 227 235 240
159 161 156 155 157 158 158 159 162 167 166 161 160 157 154 155 154 152 150 148 148 147 146 150 148 136 128 120 116 116 115 118 132 136 137 148 150 147 151 155 156 156 163 168 165 160 160 166 179 183 182 185 182 183 190 197 212 220 193 170 179 200 215 181 162 165 169 180 192 178 172 185 195 190 195 202 204 204 202 208 220 224 225 229 236
156 162 158 155 157 159 158 157 162 166 166 162 161 158 156 157 156 154 151 147 145 146 147 148 144 134 130 132 127 123 124 121 121 123 124 134 144 147 143 141 158 167 165 168 164 154 155 166 176 179 182 192 193 192 195 200 216 226 185 166 184 204 214 201 172 171 175 180 194 196 182 184 196 199 196 193 192 199 205 206 214 221 223 225 229
160 169 165 159 159 161 158 158 162 164 165 164 160 158 161 160 157 156 152 147 147 150 152 154 149 142 150 156 136 118 118 121 117 114 110 109 114 130 136 139 170 172 155 152 150 139 148 166 171 175 179 192 200 199 206 212 221 227 189 175 189 199 202 211 170 176 182 182 192 205 191 180 193 204 202 197 190 190 200 210 215 220 223 225 226
178 177 174 168 167 166 162 160 162 163 164 163 160 161 163 161 158 157 150 145 147 151 151 149 145 143 145 132 112 101 99 107 112 109 106 107 83 91 115 123 143 141 118 124 131 120 130 152 158 174 176 184 196 202 231 248 236 239 201 180 188 193 194 208 205 202 223 194 196 209 195 183 193 200 201 206 202 197 201 207 213 220 225 225 224
206 186 181 183 180 172 164 163 165 165 162 161 162 163 161 158 157 153 145 145 149 148 144 140 137 132 114 97 98 98 94 100 108 103 98 108 92 80 96 89 90 104 81 86 111 111 112 123 129 157 165 173 191 201 236 280 265 260 278 65 143 175 182 189 198 218 263 252 225 239 224 194 203 213 215 222 222 215 211 208 211 218 224 226 225
243 211 199 199 188 171 163 166 168 165 161 162 163 160 157 159 156 148 144 146 146 141 139 140 131 117 105 95 96 95 87 90 98 96 95 101 97 94 117 90 82 101 79 71 92 104 110 118 119 127 141 153 174 195 226 256 244 183 299 8 74 138 165 187 198 219 250 256 246 255 262 247 240 243 243 249 259 261 250 233 224 225 231 236 231
255 225 210 207 191 171 164 168 172 164 160 162 160 155 158 160 151 144 146 145 141 138 139 135 120 112 111 105 99 93 87 85 85 89 96 97 92 109 145 146 115 115 118 111 114 117 127 140 136 125 130 140 150 175 207 224 210 131 185 319 69 103 117 267 255 259 278 283 264 247 249 251 246 243 243 250 264 273 276 277 271 262 267 270 260
253 222 205 201 192 176 167 168 174 170 161 157 154 153 157 154 147 148 147 140 137 136 133 125 117 118 123 117 104 96 92 88 84 93 103 100 96 100 110 137 157 162 173 177 168 150 147 149 146 141 142 140 141 156 179 195 194 152 138 189 171 146 177 248 313 337 336 331 320 292 271 263 259 254 252 255 259 258 260 270 277 279 281 280 279
234 210 200 200 198 186 169 164 169 167 155 148 146 143 139 137 140 143 138 135 135 127 120 118 113 113 115 112 108 105 103 100 94 106 118 118 115 100 84 96 155 184 166 150 140 156 160 145 127 131 140 132 126 128 143 187 206 211 234 247 253 253 242 257 277 298 317 326 328 322 315 313 307 291 278 276 269 257 254 258 260 261 262 261 261
161 145 154 171 181 176 164 160 159 150 140 137 135 131 126 124 127 128 127 129 128 116 114 117 112 109 111 112 113 115 116 116 111 123 136 137 142 119 69 66 109 133 111 87 61 85 125 119 108 114 127 132 132 123 114 215 245 286 312 305 287 275 271 271 276 284 291 294 295 293 294 305 309 307 311 312 301 288 279 270 262 257 255 253 253
73 90 101 110 118 133 143 145 140 134 133 133 130 127 124 121 120 122 123 122 118 113 114 115 110 110 116 120 124 124 120 122 126 136 140 140 155 138 58 54 75 78 78 79 72 73 79 83 93 103 113 130 139 125 111 112 100 60 21 355 322 298 286 281 279 280 283 284 284 282 277 278 282 284 290 297 296 293 290 280 272 266 263 263 263
56 65 72 87 97 106 114 117 119 123 127 129 128 126 124 119 116 120 120 116 114 114 113 113 112 116 120 123 124 118 113 118 128 137 142 142 140 115 67 56 68 67 72 81 82 80 73 72 88 100 98 110 117 108 110 114 90 44 2 331 317 309 300 291 286 280 277 275 274 275 274 274 276 277 278 281 282 282 283 282 277 271 267 268 267
45 51 54 70 88 96 101 103 105 109 115 120 120 120 121 119 117 120 119 114 112 110 105 103 106 112 118 122 117 107 103 109 114 123 135 135 124 107 85 74 80 77 81 84 82 95 95 85 89 97 84 84 92 80 1 340 344 350 349 336 321 309 302 298 298 294 285 274 267 267 268 270 272 273 274 274 275 275 278 280 279 272 265 263 264
37 41 42 53 72 83 91 95 95 96 100 106 109 113 117 118 118 122 121 116 112 109 107 104 103 105 110 113 110 101 94 91 91 103 116 116 110 98 80 86 108 98 82 83 96 116 112 89 80 78 50 43 44 340 318 322 326 334 338 326 318 317 314 304 294 289 282 276 273 273 272 271 269 270 274 276 276 276 276 275 273 268 263 259 257
39 40 39 44 58 70 78 83 87 88 88 88 95 105 112 114 116 121 122 117 113 112 113 112 107 104 103 102 99 96 89 81 75 82 94 98 96 81 59 65 93 87 63 72 103 128 125 110 103 96 30 10 344 319 318 324 326 331 328 316 314 319 315 302 290 283 276 271 272 275 276 276 273 272 275 276 275 274 272 271 270 266 264 262 258
42 44 45 48 55 63 69 73 76 80 82 81 85 94 101 106 111 115 114 112 111 112 117 117 111 106 104 100 95 90 85 80 73 73 77 80 88 84 69 74 84 74 57 63 81 108 112 107 108 104 59 30 15 348 341 345 341 337 333 328 323 312 298 293 294 294 289 283 279 279 280 281 280 280 280 278 276 273 269 268 266 260 259 260 259
46 47 50 54 57 59 63 66 68 71 75 77 78 83 90 96 103 109 110 111 110 109 112 113 109 103 98 91 81 71 64 60 57 57 60 62 66 73 75 75 75 65 54 54 62 72 73 69 66 60 34 11 1 348 340 335 330 327 325 323 318 307 297 295 295 294 293 291 289 287 286 284 284 286 285 284 282 277 272 271 269 263 257 255 256
47 47 49 53 56 56 57 60 63 66 71 74 72 71 74 80 87 93 99 105 107 105 102 101 96 91 84 78 73 67 58 49 45 41 40 45 45 45 54 56 48 46 51 52 55 59 51 31 3 356 350 338 333 331 327 324 323 323 322 319 316 311 305 302 301 299 298 297 296 295 293 292 290 289 287 285 283 280 277 275 274 270 263 257 256
47 46 47 52 56 57 56 57 58 59 65 71 70 64 63 68 73 76 81 86 90 92 92 93 92 90 87 85 84 78 66 55 50 49 48 46 42 41 45 42 32 27 29 12 354 21 33 8 321 316 323 326 326 324 322 323 326 327 327 327 324 318 313 311 310 309 307 305 304 301 297 294 291 289 288 286 286 285 282 279 276 274 270 265 261
47 47 47 50 54 55 57 59 59 58 58 60 60 58 58 59 62 67 73 76 81 86 89 95 101 99 93 90 88 80 69 59 53 53 54 53 51 50 49 44 40 40 43 34 6 344 343 325 304 302 311 319 325 328 329 332 335 336 337 339 335 328 323 321 320 318 315 311 307 302 298 296 293 289 289 288 289 289 289 288 287 284 280 278 273
48 49 49 49 49 52 55 55 56 57 55 52 51 51 54 54 52 55 60 65 74 76 72 83 105 110 105 103 102 95 80 67 55 50 51 52 52 54 54 52 52 52 54 55 37 357 329 323 323 324 325 327 333 342 349 352 353 351 351 351 346 339 333 331 330 327 320 313 307 302 302 302 298 294 298 302 303 301 296 291 290 289 287 283 274
52 51 54 54 51 51 54 54 55 56 55 53 51 51 54 53 50 50 52 57 65 66 61 64 74 83 90 95 103 108 95 72 58 50 46 42 40 44 47 49 52 51 49 49 27 348 337 337 341 347 354 358 2 6 10 12 6 359 356 349 340 335 334 334 333 328 319 311 305 301 300 302 301 302 309 313 315 317 313 304 298 292 286 277 263
57 56 56 58 57 57 60 61 60 61 63 63 58 55 54 51 50 53 53 56 62 63 67 74 76 78 85 90 100 110 100 82 68 56 39 28 24 29 37 38 40 43 39 22 355 347 344 340 345 0 15 18 14 8 6 3 358 355 353 347 339 337 335 331 326 319 311 306 306 307 309 313 314 314 316 318 320 326 330 329 324 312 291 269 254
51 53 53 54 54 57 69 76 71 66 68 68 63 61 57 48 48 51 49 52 59 57 59 67 66 62 68 80 93 101 96 81 64 41 23 15 11 18 34 37 35 37 25 353 343 348 348 348 3 18 16 10 6 1 360 2 2 0 358 355 353 350 344 335 328 319 311 310 319 327 330 333 333 329 328 328 328 327 329 332 334 330 311 274 253
49 44 42 43 44 47 61 82 88 81 77 75 72 69 62 51 49 52 47 48 57 60 62 64 56 45 41 52 71 79 72 55 44 31 21 20 24 34 45 41 31 22 358 348 354 3 9 23 32 20 5 5 11 12 14 15 12 8 4 2 359 354 347 344 342 336 330 332 337 339 338 339 340 338 334 330 327 324 321 323 329 331 320 279 235
70 59 41 30 32 41 48 61 83 93 91 86 83 82 79 70 63 62 57 52 53 57 64 70 67 60 50 49 59 63 55 47 45 37 28 28 33 41 49 48 42 31 12 8 19 28 29 28 24 15 12 17 20 20 19 15 11 7 4 1 358 355 353 352 349 344 343 344 343 341 340 340 340 339 336 331 326 320 315 314 319 326 323 300 250
72 81 61 38 32 42 49 47 53 77 98 104 99 92 89 86 80 75 71 66 60 59 62 71 77 73 60 54 59 60 56 53 50 43 39 37 39 51 60 56 48 43 35 32 39 40 30 22 20 20 20 20 20 20 18 13 9 4 358 356 356 355 355 353 347 344 345 348 349 348 346 344 341 337 333 328 322 315 312 310 310 312 316 314 299
30 39 42 41 39 47 58 52 43 49 70 112 125 112 98 89 83 81 81 80 76 74 72 74 77 70 57 56 63 64 61 62 63 56 48 46 56 66 67 59 49 44 43 41 40 39 33 28 25 23 19 18 20 21 18 11 6 0 355 353 352 351 350 348 345 345 348 349 348 346 342 337 333 329 324 321 317 311 308 305 303 301 303 305 301
21 13 7 9 13 33 59 56 45 45 46 57 121 132 122 105 92 85 85 86 85 84 81 76 70 65 59 58 62 69 72 70 68 66 60 58 64 61 50 44 44 43 43 36 26 28 38 34 25 19 21 23 23 20 17 10 2 360 359 357 354 353 352 347 343 343 343 341 341 342 340 335 331 327 323 320 317 312 306 298 293 293 295 294 291
34 18 3 353 351 7 43 46 38 42 43 32 48 105 121 117 109 104 101 97 90 85 82 76 69 62 59 57 57 62 65 62 61 70 74 69 58 36 17 17 38 42 39 31 20 22 34 34 24 22 26 26 21 16 12 6 360 359 360 357 354 352 349 344 341 339 337 338 340 341 339 335 331 327 325 322 317 312 307 300 291 287 287 284 277
40 26 16 3 352 4 33 39 28 27 29 24 29 48 68 84 109 127 132 131 119 100 85 80 76 66 57 54 57 61 60 54 54 64 75 70 47 28 22 31 52 36 28 29 28 29 32 31 26 24 23 19 15 12 9 5 1 359 355 353 352 351 350 349 347 344 344 347 348 345 340 338 335 330 327 324 321 314 305 300 295 288 281 272 258
24 27 24 10 353 6 37 42 28 19 15 19 27 33 29 26 52 97 115 126 135 132 115 91 82 75 62 54 57 64 64 57 53 57 64 54 38 34 38 45 47 36 32 41 42 35 31 29 25 21 17 11 8 8 7 5 3 359 358 1 1 358 359 359 354 354 358 359 354 347 343 341 339 336 332 335 341 342 332 320 309 294 281 267 241
355 8 14 8 3 9 29 48 40 25 11 9 21 22 12 16 28 44 60 65 77 124 142 124 97 82 65 50 44 42 41 46 53 53 49 39 35 42 48 46 42 38 38 42 40 33 30 30 24 16 13 10 8 8 8 8 6 2 4 11 11 7 12 14 6 4 7 4 355 352 353 351 348 348 351 359 11 22 25 23 20 11 352 335 159
2 26 16 5 3 359 353 24 63 53 25 358 3 6 10 24 26 24 49 66 55 57 103 115 111 93 60 40 30 16 8 24 51 50 39 33 37 42 46 44 39 36 35 37 36 29 25 26 23 17 16 13 9 9 12 16 15 7 8 17 20 18 24 26 18 13 16 13 9 10 12 13 15 19 24 29 32 36 42 46 46 44 42 46 57
359 23 5 357 1 349 334 356 64 64 26 6 19 13 8 13 17 18 50 76 65 44 35 40 56 67 48 26 14 13 18 34 53 45 35 36 38 36 39 42 38 36 36 36 35 28 23 25 25 20 19 18 16 15 19 23 23 19 22 32 33 29 30 31 29 30 30 26 26 29 29 30 33 35 38 41 41 39 42 44 44 42 42 43 43
339 354 358 9 15 348 331 353 28 26 355 4 57 51 17 7 9 12 32 64 66 48 25 24 41 48 33 12 5 27 39 45 50 41 35 39 39 35 37 37 35 36 38 35 32 29 26 26 26 23 22 24 23 23 27 31 31 31 36 38 33 32 37 38 36 37 35 33 37 41 40 38 38 37 37 40 40 38 39 39 39 38 38 40 41
342 319 327 2 9 352 335 352 19 16 4 11 43 69 56 27 16 12 20 49 63 48 26 39 49 39 23 14 25 39 30 30 45 50 43 39 37 36 37 34 31 34 35 32 33 34 31 30 31 28 25 31 36 37 38 37 37 40 44 44 40 44 50 49 45 45 46 47 48 47 41 37 36 35 34 36 37 37 38 37 35 34 35 39 43
341 282 285 316 331 328 320 341 5 6 358 3 41 72 68 46 31 19 18 34 50 39 36 62 61 38 28 35 51 36 20 21 44 56 51 41 36 35 35 35 35 37 37 38 44 45 42 40 38 33 33 45 53 53 48 45 43 45 49 50 51 51 50 48 47 49 49 47 46 45 43 40 39 37 35 34 36 38 39 37 34 31 30 31 33
299 277 276 291 299 299 315 355 8 24 37 41 66 82 71 51 50 42 26 24 25 17 34 78 80 56 50 55 54 39 35 40 48 50 48 44 42 42 42 44 48 47 46 52 59 58 53 48 41 36 39 46 52 56 54 50 46 48 53 55 53 50 46 40 36 35 32 30 32 37 40 41 40 40 36 33 34 38 37 36 36 34 29 26 25
256 273 287 298 307 315 342 12 36 74 84 74 77 87 78 57 54 57 49 25 351 351 27 87 93 70 58 55 50 48 52 55 55 54 53 52 53 56 57 58 59 58 54 54 60 64 63 57 51 45 43 44 48 53 55 52 47 48 54 56 51 46 42 36 30 22 12 7 10 18 26 27 26 28 31 33 34 36 35 33 34 33 29 26 27
225 244 292 300 311 319 328 42 82 84 78 79 95 94 74 57 58 70 74 19 326 342 30 63 67 57 52 50 51 57 61 63 64 65 67 66 67 69 68 64 63 63 56 49 52 63 67 60 54 52 51 51 51 51 54 55 51 46 48 51 50 46 39 31 22 14 11 14 15 15 17 14 7 7 14 23 29 33 32 27 24 22 18 19 26
230 174 259 285 298 313 0 86 89 80 66 64 71 69 60 52 57 76 85 291 288 312 95 79 58 53 57 58 58 65 75 81 82 77 71 69 70 71 70 66 64 65 59 43 38 53 69 69 59 56 58 59 54 48 46 46 45 43 44 42 45 54 55 42 27 16 18 25 26 21 17 15 10 5 3 4 15 29 30 22 19 20 16 14 16
254 125 274 289 301 319 8 91 100 97 91 86 71 54 51 59 80 110 172 268 273 157 124 117 108 98 90 86 87 88 90 94 93 82 71 68 66 62 60 59 56 58 61 50 36 40 57 65 60 56 60 65 62 51 41 41 43 35 2 343 349 69 90 64 44 27 20 23 23 21 24 29 28 24 24 26 33 39 34 27 28 30 25 20 19
311 106 281 292 305 313 314 40 114 112 110 111 103 75 42 41 169 171 189 246 255 170 140 134 135 132 124 125 122 106 96 98 95 81 68 63 58 46 43 53 55 46 44 50 48 39 40 51 57 54 54 62 65 55 43 50 53 350 333 351 29 84 104 85 65 42 24 27 29 27 29 32 32 34 36 39 40 39 33 26 25 33 38 36 29
302 268 284 300 304 302 304 312 133 126 113 110 105 86 358 272 216 173 182 218 226 197 155 137 134 134 130 132 132 121 110 105 95 77 63 64 64 42 31 45 62 54 34 36 43 35 25 36 51 53 48 46 45 30 1 343 300 309 337 8 40 70 96 96 76 55 46 45 42 35 30 31 31 34 35 32 28 26 23 17 16 25 43 50 36
287 266 246 270 288 293 302 307 183 136 124 120 120 125 202 252 228 159 188 232 228 201 168 143 135 133 129 128 136 134 122 109 100 87 67 67 80 60 35 35 52 55 40 36 40 31 21 27 37 47 56 52 28 350 333 332 328 345 9 21 28 55 91 103 71 55 58 57 49 41 33 27 23 21 21 22 20 21 24 22 18 22 34 45 39
278 262 233 226 268 289 301 306 286 132 129 130 133 135 156 244 233 170 204 249 242 203 186 166 145 142 144 148 168 197 190 185 195 184 146 127 111 80 44 32 37 38 31 32 37 29 26 37 41 40 46 47 14 351 358 14 14 18 34 43 47 62 90 115 93 64 49 36 38 45 37 22 15 11 12 18 17 12 11 10 9 14 25 34 37
284 271 238 216 275 285 294 302 300 143 145 151 149 146 161 210 208 174 201 242 245 221 201 176 154 147 140 140 254 275 268 261 294 312 148 141 125 81 37 22 25 24 20 30 35 26 21 41 56 50 34 24 22 21 29 41 49 49 56 65 68 75 91 98 82 55 31 23 25 32 34 30 20 4 358 4 7 1 355 351 355 11 26 26 30